Regional Weather Roundup
Issued by NWS

Home | Current Version | Previous Version | Graphics & Text | Print | Product List | Glossary On
Versions: 1 2 3 4 5 6 7 8 9 10 11 12 13 14 15 16 17 18 19 20 21 22 23 24 25 26 27
000
ASUS45 KSLC 011210
RWRUT

UTAH REGIONAL WEATHER ROUNDUP
NATIONAL WEATHER SERVICE SALT LAKE CITY UT
600 AM MDT SUN MAY 01 2016

UTZ001>011-023>025-011300-

NORTHERN UTAH

CITY           SKY/WX    TMP DP  RH WIND       PRES   REMARKS
BRIGHAM CITY   CLOUDY    48  22  36 E24G40    30.10S
HILL AFB       CLOUDY    45  23  42 NE13G39   30.01S
LOGAN          CLOUDY    47  23  38 E12G38    30.13S
OGDEN          CLOUDY    47  23  38 W8G35     30.04R
PROVO AIRPORT  PTCLDY    45  21  39 S5        30.01S
SALT LAKE CITY MOCLDY    50  22  33 E18G32    30.02F
VERNAL         CLOUDY    40  23  50 NE15G22   30.12R WCI  32
WENDOVER       PTCLDY    45  30  57 N24G31    30.06R
HEBER CITY     MOCLDY    34  28  80 SE6       30.06R WCI  29

$$

UTZ012>022-026-027-011300-

SOUTHERN/CENTRAL UTAH

CITY           SKY/WX    TMP DP  RH WIND       PRES   REMARKS
BLANDING       CLOUDY    44  31  60 NE7       29.97S
BRYCE CANYON   CLEAR     30  24  78 N5        29.97R WCI  25
CEDAR CITY     CLEAR     33  31  92 NE3       29.94R
DELTA          PTCLDY    43  27  52 NE12G17   29.97R
HANKSVILLE     MOCLDY    43  30  61 N7        30.00S
MILFORD        CLOUDY    40  35  83 N8        29.95R WCI  34
MOAB/CYNLANDS  CLEAR     38  29  70 NW9       29.95S WCI  31
PRICE          PTCLDY    38  21  50 NE16G23   30.03F WCI  29
ST GEORGE      PTSUNNY   48  39  71 CALM      29.90R
KANAB          PTCLDY    37  36  93 N6        29.94S WCI  33

$$

REGIONAL REPORTS     COLORADO/ARIZONA

CITY           SKY/WX    TMP DP  RH WIND       PRES   REMARKS
CRAIG, CO      CLOUDY    31  22  69 NE6       30.13R WCI  25
GRAND JUNCTION CLOUDY    38  28  67 W9        29.99R WCI  31
RIFLE          CLOUDY    36  26  67 CALM      30.04S
MONTROSE       CLEAR     33  27  78 NE5       30.01R WCI  29
CORTEZ         RAIN      40  37  89 S9        29.94R FOG     WCI  34
PAGE, AZ       CLOUDY    49  34  56 NW3       29.87S
GRAND CANYON   CLOUDY    40  35  83 NE9       29.89R WCI  34
KINGMAN        PTCLDY    48  42  80 E3        29.85R
FLAGSTAFF      MIX PCPN  33  33 100 S5        29.86F WCI  29

$$

REGIONAL REPORTS    NEVADA/IDAHO/WYOMING

CITY           SKY/WX    TMP DP  RH WIND       PRES   REMARKS
LAS VEGAS, NV  MOCLDY    55  48  77 SW6       29.81S
ELY            CLOUDY    38  33  82 N7        30.02R WCI  33
ELKO           MOCLDY    42  35  76 E5        30.04F
POCATELLO, ID  CLOUDY    36  32  85 NE8       30.17R WCI  30
BURLEY         MOCLDY    42  37  82 NE12      30.11R
EVANSTON, WY   CLOUDY    32  24  72 E21G29    30.15S WCI  20
ROCK SPRINGS   CLOUDY    32  25  75 E25G35    30.20F WCI  19

$$




USA.gov is the U.S. government's official web portal to all federal, state and local government web resources and services.